Regional Weather Roundup
Issued by NWS

Home | Current Version | Previous Version | Text Only | Print | Product List | Glossary Off
Versions: 1 2 3 4 5 6 7 8 9 10 11 12 13 14 15 16 17 18 19 20 21 22 23 24 25 26 27 28 29 30 31 32 33 34 35 36 37 38 39 40 41 42 43 44 45 46 47 48 49 50

000
ASUS45 KSLC 251710
RWRUT

UTAH REGIONAL WEATHER ROUNDUP
NATIONAL WEATHER SERVICE SALT LAKE CITY UT
1000 AM MST TUE NOV 25 2014

UTZ001>011-023>025-251800-

NORTHERN UTAH

CITY           SKY/WX    TMP DP  RH WIND       PRES   REMARKS
HILL AFB       CLOUDY    36  19  51 S9        30.34S WCI  29
LOGAN          CLOUDY    38  26  62 VRB7      30.32S WCI  33
OGDEN          CLOUDY    38  20  48 S10       30.34S WCI  31
PROVO AIRPORT  CLOUDY    32  21  64 CALM      30.41
SALT LAKE CITY PTSUNNY   40  18  41 SE14      30.35F WCI  32
VERNAL         MOSUNNY   31  11  43 CALM      30.26F
WENDOVER       PTSUNNY   37  21  52 CALM      30.36S
HEBER CITY     CLOUDY    28  19  69 CALM      30.35R
WEST JORDAN    CLOUDY    37  21  52 S16G25    30.36S WCI  28

$$

UTZ012>022-026-027-251800-

SOUTHERN/CENTRAL UTAH

CITY           SKY/WX    TMP DP  RH WIND       PRES   REMARKS
BLANDING       SUNNY     31   9  39 CALM      30.49S
BRYCE CANYON   SUNNY     38   5  25 NW6       30.42R WCI  33
CEDAR CITY     SUNNY     33  15  47 NE5       30.43S WCI  29
DELTA          PTSUNNY   32  22  66 CALM      30.43R
MILFORD        SUNNY     35  14  42 S14       30.43S WCI  26
MOAB/CYNLANDS  CLOUDY    36  11  35 NW3       30.38S
PRICE          CLOUDY    29  15  56 CALM      30.34S
ST GEORGE      MOSUNNY   39   9  28 CALM      30.52F

$$

REGIONAL REPORTS     COLORADO/ARIZONA

CITY           SKY/WX    TMP DP  RH WIND       PRES   REMARKS
CRAIG, CO      CLOUDY    24  17  74 E7        30.27R WCI  16
GRAND JUNCTION CLOUDY    29  15  56 VRB3      30.38F
RIFLE          CLOUDY    20  16  84 CALM      30.39R
MONTROSE       CLOUDY    26  14  60 N5        30.39S WCI  20
CORTEZ         CLOUDY    32  11  41 VRB7      30.42S WCI  26
PAGE, AZ       NOT AVBL
GRAND CANYON   SUNNY     42  -5  13 NW7       30.48R
KINGMAN        SUNNY     47   3  16 SW3       30.48S
FLAGSTAFF      SUNNY     40  -7  13 VRB3      30.45F

$$

REGIONAL REPORTS    NEVADA/IDAHO/WYOMING

CITY           SKY/WX    TMP DP  RH WIND       PRES   REMARKS
LAS VEGAS, NV  SUNNY     52  12  20 S6        30.45R
ELY            SUNNY     43  20  39 CALM      30.47S
ELKO           PTSUNNY   39  21  48 S7        30.46R WCI  34
POCATELLO, ID  CLOUDY    41  34  76 SW22G32   30.22R
BURLEY         CLOUDY    43  32  65 W6        30.23S
EVANSTON, WY   PTSUNNY   31  21  66 SW25G36   30.23S WCI  17
ROCK SPRINGS   CLOUDY    30  18  60 W32G43    30.12R WCI  14
KEMMERER       LGT SNOW  30  25  80 W21G29    30.17R WCI  17

$$



USA.gov is the U.S. government's official web portal to all federal, state and local government web resources and services.